| time (UTC) | temp F | wind direction | speed MPH | gust MPH | rain 1hr in | rain 24hr in | rain mn in | humidity % | barometer mb |
| 20260504044602 | 59 | 204 | 6.0 | 0.0 | 0.00 | 0.00 | 0.00 | 40 | 998.1 |
| 20260504043058 | 59 | 198 | 6.0 | 0.0 | 0.00 | 0.00 | 0.00 | 40 | 998.6 |
| 20260504041552 | 59 | 246 | 5.0 | 0.0 | 0.00 | 0.00 | 0.00 | 42 | 999.0 |
| 20260504034557 | 59 | 217 | 4.0 | 0.0 | 0.00 | 0.00 | 0.00 | 43 | 999.7 |
| 20260504033114 | 59 | 205 | 5.0 | 0.0 | 0.00 | 0.00 | 0.00 | 42 | 1000.1 |
| 20260504031542 | 59 | 175 | 5.0 | 0.0 | 0.00 | 0.00 | 0.00 | 43 | 1000.4 |
| 20260504030045 | 59 | 188 | 4.0 | 0.0 | 0.00 | 0.00 | 0.00 | 43 | 1000.7 |
| 20260504024538 | 60 | 204 | 4.0 | 0.0 | 0.00 | 0.00 | 0.00 | 41 | 1001.1 |
| 20260504023047 | 61 | 195 | 4.0 | 0.0 | 0.00 | 0.00 | 0.00 | 39 | 1001.4 |
| 20260504021535 | 62 | 206 | 3.0 | 0.0 | 0.00 | 0.00 | 0.00 | 38 | 1001.5 |
| 20260504020036 | 62 | 213 | 3.0 | 0.0 | 0.00 | 0.00 | 0.00 | 37 | 1001.8 |
| 20260504014540 | 63 | 218 | 3.0 | 0.0 | 0.00 | 0.00 | 0.00 | 36 | 1001.9 |
| 20260504013032 | 64 | 244 | 3.0 | 0.0 | 0.00 | 0.00 | 0.00 | 35 | 1002.1 |
| 20260504011527 | 65 | 260 | 4.0 | 0.0 | 0.00 | 0.00 | 0.00 | 34 | 1002.2 |
| 20260504010028 | 65 | 227 | 5.0 | 0.0 | 0.00 | 0.00 | 0.00 | 34 | 1002.5 |
| 20260504004527 | 66 | 258 | 5.0 | 0.0 | 0.00 | 0.00 | 0.00 | 35 | 1002.6 |
| 20260504003030 | 66 | 223 | 6.0 | 0.0 | 0.00 | 0.00 | 0.00 | 35 | 1002.7 |
| 20260504001522 | 66 | 254 | 6.0 | 0.0 | 0.00 | 0.00 | 0.00 | 36 | 1002.9 |
| 20260504000021 | 67 | 268 | 6.0 | 0.0 | 0.00 | 0.00 | 0.00 | 34 | 1003.1 |
| 20260503234532 | 67 | 263 | 6.0 | 0.0 | 0.00 | 0.00 | 0.00 | 32 | 1003.3 |
| 20260503233018 | 67 | 250 | 6.0 | 0.0 | 0.00 | 0.00 | 0.00 | 35 | 1003.4 |
| 20260503231517 | 67 | 276 | 5.0 | 0.0 | 0.00 | 0.00 | 0.00 | 33 | 1003.5 |
| 20260503230015 | 67 | 212 | 4.0 | 0.0 | 0.00 | 0.00 | 0.00 | 33 | 1003.7 |
| 20260503224513 | 67 | 260 | 6.0 | 0.0 | 0.00 | 0.00 | 0.00 | 30 | 1003.8 |
| 20260503223013 | 67 | 281 | 5.0 | 0.0 | 0.00 | 0.00 | 0.00 | 34 | 1003.9 |
| 20260503221511 | 68 | 234 | 6.0 | 0.0 | 0.00 | 0.00 | 0.00 | 33 | 1004.0 |
| 20260503220010 | 67 | 227 | 5.0 | 0.0 | 0.00 | 0.00 | 0.00 | 31 | 1004.1 |
| 20260503214506 | 67 | 303 | 5.0 | 0.0 | 0.00 | 0.00 | 0.00 | 35 | 1004.4 |
| 20260503213006 | 66 | 275 | 7.0 | 0.0 | 0.00 | 0.00 | 0.00 | 31 | 1004.8 |
| 20260503211504 | 66 | 250 | 6.0 | 0.0 | 0.00 | 0.00 | 0.00 | 36 | 1004.9 |
| 20260503210005 | 66 | 266 | 5.0 | 0.0 | 0.00 | 0.00 | 0.00 | 33 | 1005.0 |
| 20260503204502 | 66 | 279 | 6.0 | 0.0 | 0.00 | 0.00 | 0.00 | 33 | 1005.3 |
| 20260503203106 | 65 | 279 | 6.0 | 0.0 | 0.00 | 0.00 | 0.00 | 31 | 1005.6 |
| 20260503201605 | 65 | 286 | 5.0 | 0.0 | 0.00 | 0.00 | 0.00 | 33 | 1005.8 |
| 20260503200101 | 65 | 243 | 5.0 | 0.0 | 0.00 | 0.00 | 0.00 | 34 | 1006.0 |
| 20260503194554 | 64 | 268 | 4.0 | 0.0 | 0.00 | 0.00 | 0.00 | 35 | 1006.2 |
| 20260503193056 | 64 | 284 | 6.0 | 0.0 | 0.00 | 0.00 | 0.00 | 35 | 1006.4 |
| 20260503191608 | 63 | 259 | 6.0 | 0.0 | 0.00 | 0.00 | 0.00 | 35 | 1006.6 |
| 20260503190052 | 64 | 252 | 6.0 | 0.0 | 0.00 | 0.00 | 0.00 | 35 | 1006.6 |
| 20260503184558 | 64 | 278 | 5.0 | 0.0 | 0.00 | 0.00 | 0.00 | 35 | 1006.9 |
| 20260503183109 | 63 | 262 | 5.0 | 0.0 | 0.00 | 0.00 | 0.00 | 35 | 1007.1 |
| 20260503181549 | 63 | 325 | 5.0 | 0.0 | 0.00 | 0.00 | 0.00 | 35 | 1007.3 |
| 20260503180048 | 62 | 296 | 5.0 | 0.0 | 0.00 | 0.00 | 0.00 | 36 | 1007.5 |
| 20260503174544 | 62 | 309 | 4.0 | 0.0 | 0.00 | 0.00 | 0.00 | 40 | 1007.6 |
| 20260503173109 | 61 | 273 | 5.0 | 0.0 | 0.00 | 0.00 | 0.00 | 35 | 1007.7 |
| 20260503171545 | 61 | 320 | 4.0 | 0.0 | 0.00 | 0.00 | 0.00 | 38 | 1007.9 |
| 20260503081534 | 50 | 249 | 0.0 | 0.0 | 0.00 | 0.00 | 0.00 | 67 | 1004.6 |
| 20260503071522 | 54 | 194 | 1.0 | 0.0 | 0.00 | 0.00 | 0.00 | 55 | 1004.5 |